TimeCDT,TemperatureF,Dew PointF,Humidity,Sea Level PressureIn,VisibilityMPH,Wind Direction,Wind SpeedMPH,Gust SpeedMPH,PrecipitationIn,Events,Conditions,WindDirDegrees,DateUTC
12:15 AM,72.1,70.0,93,29.91,10.0,East,4.6,-,N/A,,Unknown,100,2013-04-30 05:15:00
12:35 AM,72.3,70.0,92,29.90,10.0,East,3.5,-,N/A,,Unknown,100,2013-04-30 05:35:00
12:55 AM,71.2,69.6,95,29.90,10.0,East,3.5,-,N/A,,Unknown,90,2013-04-30 05:55:00
1:15 AM,69.8,68.4,95,29.89,10.0,East,4.6,-,N/A,,Unknown,90,2013-04-30 06:15:00
1:35 AM,68.9,67.6,96,29.88,10.0,East,4.6,-,N/A,,Unknown,90,2013-04-30 06:35:00
1:55 AM,68.5,67.3,96,29.88,10.0,Calm,Calm,-,N/A,,Unknown,0,2013-04-30 06:55:00
2:15 AM,67.8,66.6,96,29.88,7.0,East,3.5,-,N/A,,Unknown,90,2013-04-30 07:15:00
2:35 AM,67.6,66.6,96,29.88,7.0,Calm,Calm,-,N/A,,Unknown,0,2013-04-30 07:35:00
2:55 AM,65.8,64.9,97,29.88,7.0,East,3.5,-,N/A,,Unknown,100,2013-04-30 07:55:00
3:15 AM,66.2,65.7,98,29.88,5.0,Calm,Calm,-,N/A,,Mist,0,2013-04-30 08:15:00
3:35 AM,65.5,64.9,98,29.88,5.0,Calm,Calm,-,N/A,,Mist,0,2013-04-30 08:35:00
3:55 AM,64.6,64.2,99,29.88,4.0,Calm,Calm,-,N/A,,Mist,0,2013-04-30 08:55:00
4:15 AM,65.3,64.9,99,29.87,5.0,Calm,Calm,-,N/A,,Mist,0,2013-04-30 09:15:00
4:35 AM,63.9,63.5,99,29.86,10.0,Calm,Calm,-,N/A,,Unknown,0,2013-04-30 09:35:00
4:55 AM,65.5,65.5,100,29.86,7.0,ESE,4.6,-,N/A,,Unknown,110,2013-04-30 09:55:00
5:15 AM,65.1,64.8,99,29.87,7.0,SE,4.6,-,N/A,,Unknown,130,2013-04-30 10:15:00
5:35 AM,65.8,65.7,99,29.87,10.0,ESE,3.5,-,N/A,,Unknown,110,2013-04-30 10:35:00
5:55 AM,65.5,65.3,99,29.87,10.0,East,3.5,-,N/A,,Unknown,90,2013-04-30 10:55:00
6:15 AM,65.5,65.3,99,29.87,10.0,East,3.5,-,N/A,,Unknown,80,2013-04-30 11:15:00
6:35 AM,65.1,64.8,99,29.87,7.0,East,4.6,-,N/A,,Unknown,80,2013-04-30 11:35:00
6:55 AM,66.2,65.7,98,29.87,10.0,East,4.6,-,N/A,,Unknown,80,2013-04-30 11:55:00
7:15 AM,67.8,67.1,98,29.87,10.0,East,4.6,-,N/A,,Unknown,90,2013-04-30 12:15:00
7:35 AM,70.5,68.7,94,29.88,10.0,East,5.8,-,N/A,,Unknown,100,2013-04-30 12:35:00
7:55 AM,72.5,70.2,92,29.88,10.0,East,5.8,-,N/A,,Unknown,100,2013-04-30 12:55:00
8:15 AM,74.1,71.2,91,29.89,10.0,ESE,8.1,-,N/A,,Unknown,110,2013-04-30 13:15:00
8:35 AM,75.4,71.6,88,29.88,10.0,East,6.9,-,N/A,,Unknown,100,2013-04-30 13:35:00
8:55 AM,75.7,72.0,88,29.88,10.0,ESE,5.8,-,N/A,,Unknown,110,2013-04-30 13:55:00
9:15 AM,75.4,72.0,89,29.89,10.0,East,6.9,-,N/A,,Unknown,100,2013-04-30 14:15:00
9:35 AM,75.6,72.1,89,29.90,10.0,ESE,6.9,-,N/A,,Unknown,110,2013-04-30 14:35:00
9:55 AM,75.9,72.3,89,29.90,10.0,East,5.8,-,N/A,,Unknown,100,2013-04-30 14:55:00
10:15 AM,76.1,72.5,89,29.90,10.0,ESE,10.4,-,N/A,,Unknown,110,2013-04-30 15:15:00
10:35 AM,76.1,72.1,87,29.90,10.0,East,6.9,-,N/A,,Unknown,80,2013-04-30 15:35:00
10:55 AM,75.7,72.0,88,29.92,10.0,East,6.9,-,N/A,Thunderstorm,Thunderstorm,100,2013-04-30 15:55:00
11:15 AM,75.2,72.0,90,29.91,10.0,East,6.9,-,N/A,,Unknown,100,2013-04-30 16:15:00
11:35 AM,74.5,71.8,91,29.90,10.0,East,4.6,-,N/A,Thunderstorm,Unknown,90,2013-04-30 16:35:00
11:55 AM,71.2,66.4,85,29.93,7.0,SW,9.2,25.3,N/A,Rain-Thunderstorm,Light Thunderstorms and Rain,230,2013-04-30 16:55:00
12:15 PM,67.1,65.3,94,29.93,0.5,SW,6.9,-,N/A,Rain-Thunderstorm,Heavy Thunderstorms and Rain,230,2013-04-30 17:15:00
12:35 PM,65.7,64.6,96,29.93,4.0,South,8.1,-,N/A,Rain-Thunderstorm,Thunderstorms and Rain,190,2013-04-30 17:35:00
12:55 PM,65.5,64.4,96,29.91,4.0,SSW,5.8,-,N/A,Rain-Thunderstorm,Thunderstorms and Rain,200,2013-04-30 17:55:00
1:15 PM,65.5,64.6,97,29.90,4.0,SSE,4.6,-,N/A,Rain-Thunderstorm,Rain,150,2013-04-30 18:15:00
1:35 PM,65.5,64.4,96,29.89,7.0,SE,8.1,-,N/A,Rain-Thunderstorm,Thunderstorms and Rain,130,2013-04-30 18:35:00
1:55 PM,65.8,64.4,95,29.89,10.0,East,5.8,-,N/A,Rain,Light Rain,100,2013-04-30 18:55:00
2:15 PM,66.2,64.8,95,29.88,10.0,ENE,11.5,-,N/A,Rain,Light Rain,70,2013-04-30 19:15:00
2:35 PM,66.7,65.3,95,29.87,7.0,ENE,9.2,-,N/A,Rain,Light Rain,70,2013-04-30 19:35:00
2:55 PM,68.0,66.2,94,29.85,10.0,NE,9.2,-,N/A,,Light Drizzle,50,2013-04-30 19:55:00
3:15 PM,71.2,67.6,88,29.84,10.0,ENE,8.1,-,N/A,,Unknown,70,2013-04-30 20:15:00
3:35 PM,72.9,66.9,82,29.85,10.0,East,6.9,-,N/A,,Unknown,90,2013-04-30 20:35:00
3:55 PM,72.7,67.3,83,29.85,10.0,East,5.8,-,N/A,,Unknown,90,2013-04-30 20:55:00
4:15 PM,72.5,67.5,84,29.84,10.0,East,5.8,-,N/A,,Unknown,90,2013-04-30 21:15:00
4:35 PM,73.8,67.8,82,29.84,10.0,East,5.8,-,N/A,,Unknown,90,2013-04-30 21:35:00
4:55 PM,73.9,67.3,80,29.83,10.0,East,3.5,-,N/A,,Unknown,90,2013-04-30 21:55:00
5:15 PM,74.3,67.8,80,29.83,10.0,East,5.8,-,N/A,,Unknown,90,2013-04-30 22:15:00
5:35 PM,74.3,67.5,79,29.83,10.0,SE,3.5,-,N/A,,Unknown,130,2013-04-30 22:35:00
5:55 PM,74.3,67.3,79,29.84,10.0,ESE,5.8,-,N/A,,Unknown,110,2013-04-30 22:55:00
6:15 PM,73.9,68.0,82,29.84,10.0,East,4.6,-,N/A,,Unknown,100,2013-04-30 23:15:00
6:35 PM,73.6,67.5,81,29.84,10.0,SE,9.2,-,N/A,,Unknown,130,2013-04-30 23:35:00
6:55 PM,73.0,67.1,82,29.85,10.0,ESE,9.2,-,N/A,,Unknown,120,2013-04-30 23:55:00
7:15 PM,72.5,67.5,84,29.86,10.0,ESE,9.2,-,N/A,,Unknown,120,2013-05-01 00:15:00
7:35 PM,72.5,68.0,86,29.85,10.0,East,8.1,-,N/A,,Unknown,100,2013-05-01 00:35:00
7:55 PM,72.5,68.4,87,29.85,10.0,East,5.8,-,N/A,,Unknown,100,2013-05-01 00:55:00
8:15 PM,72.0,68.5,89,29.85,10.0,East,9.2,-,N/A,,Unknown,90,2013-05-01 01:15:00
8:35 PM,72.5,68.5,87,29.85,10.0,ESE,6.9,-,N/A,,Unknown,110,2013-05-01 01:35:00
9:15 PM,72.7,69.4,90,29.86,10.0,East,4.6,-,N/A,Rain,Light Rain,90,2013-05-01 02:15:00
9:35 PM,72.5,70.0,92,29.87,10.0,East,5.8,-,N/A,,Unknown,100,2013-05-01 02:35:00
9:55 PM,71.8,69.4,92,29.87,10.0,East,4.6,-,N/A,,Unknown,90,2013-05-01 02:55:00
10:15 PM,71.8,69.8,93,29.87,10.0,East,6.9,-,N/A,,Unknown,100,2013-05-01 03:15:00
10:35 PM,72.5,70.2,92,29.87,10.0,East,6.9,-,N/A,,Unknown,80,2013-05-01 03:35:00
10:55 PM,72.5,70.0,92,29.87,10.0,East,9.2,-,N/A,,Unknown,90,2013-05-01 03:55:00
11:15 PM,72.5,70.0,92,29.87,10.0,East,9.2,-,N/A,,Unknown,80,2013-05-01 04:15:00
11:35 PM,72.3,70.2,93,29.88,10.0,East,6.9,-,N/A,,Unknown,90,2013-05-01 04:35:00
11:55 PM,72.1,70.2,93,29.87,10.0,East,4.6,-,N/A,,Unknown,90,2013-05-01 04:55:00